AI7R Weather Reports


Display with metric or nautical units.
time (UTC)temp
F
wind
direction
speed
MPH
gust
MPH
rain 1hr
in
rain 24hr
in
rain mn
in
humidity
%
barometer
mb
20260504050005 61 259 2.0 8.0 0.00 0.00 0.00 32 1009.4
20260504044504 61 360 2.0 11.0 0.00 0.00 0.00 32 1009.1
20260504043005 61 360 2.0 11.0 0.00 0.00 0.00 31 1009.1
20260504041504 62 360 2.0 8.0 0.00 0.00 0.00 30 1008.7
20260504040005 62 360 2.0 10.0 0.00 0.00 0.00 30 1008.3
20260504034503 63 360 2.0 9.0 0.00 0.00 0.00 29 1008.1
20260504033005 63 204 2.0 13.0 0.00 0.00 0.00 29 1007.8
20260504031504 63 360 1.0 7.0 0.00 0.00 0.00 30 1007.8
20260504030007 64 360 1.0 4.0 0.00 0.00 0.00 30 1007.4
20260504023005 65 360 1.0 6.0 0.00 0.00 0.00 28 1007.1
20260504021504 65 360 2.0 10.0 0.00 0.00 0.00 28 1007.1
20260504013004 68 360 4.0 13.0 0.00 0.00 0.00 26 1007.3
20260504011504 68 360 4.0 15.0 0.00 0.00 0.00 25 1007.4
20260504010006 69 360 4.0 12.0 0.00 0.00 0.00 26 1007.4
20260504004503 69 360 4.0 16.0 0.00 0.00 0.00 25 1007.5
20260504003004 71 360 4.0 16.0 0.00 0.00 0.00 24 1007.4
20260504001504 72 360 4.0 14.0 0.00 0.00 0.00 23 1007.4
20260504000005 71 360 4.0 13.0 0.00 0.00 0.00 29 1007.4
20260503234503 72 360 5.0 15.0 0.00 0.00 0.00 28 1007.4
20260503233005 71 360 5.0 13.0 0.00 0.00 0.00 28 1007.6
20260503230005 71 169 5.0 12.0 0.00 0.00 0.00 29 1007.9
20260503224503 72 360 3.0 10.0 0.00 0.00 0.00 27 1008.2
20260503223005 72 164 5.0 15.0 0.00 0.00 0.00 27 1008.6
20260503221503 74 165 4.0 14.0 0.00 0.00 0.00 26 1008.6
20260503220005 74 360 5.0 13.0 0.00 0.00 0.00 26 1008.8
20260503213005 74 360 3.0 14.0 0.00 0.00 0.00 24 1009.2
20260503211503 73 360 4.0 12.0 0.00 0.00 0.00 23 1009.6
20260503210005 73 173 5.0 18.0 0.00 0.00 0.00 22 1009.9
20260503204503 73 360 4.0 12.0 0.00 0.00 0.00 25 1010.1
20260503203005 71 246 4.0 12.0 0.00 0.00 0.00 29 1010.3
20260503201504 71 119 2.0 14.0 0.00 0.00 0.00 29 1010.2
20260503200006 72 360 4.0 11.0 0.00 0.00 0.00 29 1010.6
20260503193005 71 360 4.0 15.0 0.00 0.00 0.00 31 1010.9
20260503191504 71 360 3.0 11.0 0.00 0.00 0.00 32 1010.9
20260503190005 71 217 3.0 20.0 0.00 0.00 0.00 33 1011.1
20260503184503 71 360 3.0 9.0 0.00 0.00 0.00 35 1011.3
20260503183004 70 360 1.0 9.0 0.00 0.00 0.00 37 1011.5
20260503180005 68 142 3.0 12.0 0.00 0.00 0.00 39 1012.3
20260503174503 66 360 3.0 8.0 0.00 0.00 0.00 42 1012.6
20260503173004 67 360 3.0 14.0 0.00 0.00 0.00 41 1012.7
20260503171503 64 360 2.0 9.0 0.00 0.00 0.00 44 1012.6
20260503081502 57 93 0.0 8.0 0.00 0.00 0.00 40 1012.5